This demonstration page uses our WeatherBlox Daily Observations layout. Learn more.

Left ArrowRight Arrow

36.17497, -115.13722

Hourly Observations for September 23, 2017

Temp ( °F °C ) Dew Point ( °F °C ) Humidity (%) Winds ( mph kmh ) Pressure ( in mb ) Visibility ( mi km ) Precip ( " mm )
12:53 am 00:53 Clear 65 18.3 25 -3.9 22 22 NNW 13 20 29.76 1008 10 16 0.00 0.00
1:53 am 01:53 Clear 65 18.3 26 -3.3 23 23 NNW 14 22 29.77 1008 10 16 0.00 0.00
2:53 am 02:53 Clear 63 17.2 27 -2.8 26 26 NNW 15 24 29.77 1008 10 16 0.00 0.00
3:53 am 03:53 Mostly Cloudy 62 16.7 28 -2.2 28 28 NNW 17 28 29.78 1008 10 16 0.00 0.00
4:53 am 04:53 Mostly Cloudy 62 16.7 29 -1.7 29 29 NNW 14 22 29.78 1009 10 16 0.00 0.00
5:53 am 05:53 Mostly Clear 61 16.1 28 -2.2 29 29 NNW 16 26 29.79 1009 10 16 0.00 0.00
6:53 am 06:53 Mostly Sunny 60 15.6 29 -1.7 31 31 N 15 24 29.82 1010 10 16 0.00 0.00
7:53 am 07:53 Sunny 61 16.1 29 -1.7 30 30 N 17 28 29.84 1010 10 16 0.00 0.00
8:53 am 08:53 Sunny 64 17.8 29 -1.7 27 27 N 18 30 29.84 1011 10 16 0.00 0.00
9:53 am 09:53 Sunny 66 18.9 28 -2.2 24 24 N 20 31 29.85 1011 10 16 0.00 0.00
10:53 am 10:53 Sunny 69 20.6 27 -2.8 21 21 NNW 20 31 29.85 1011 10 16 0.00 0.00
11:53 am 11:53 Sunny 70 21.1 26 -3.3 19 19 NNW 16 26 29.84 1010 10 16 0.00 0.00
12:53 pm 12:53 Mostly Cloudy 69 20.6 25 -3.9 19 19 N 18 30 29.83 1010 10 16 0.00 0.00
1:53 pm 13:53 Partly Cloudy 70 21.1 25 -3.9 18 18 N 17 28 29.82 1010 10 16 0.00 0.00
2:53 pm 14:53 Partly Cloudy 71 21.7 25 -3.9 18 18 N 9 15 29.82 1010 10 16 0.00 0.00
3:53 pm 15:53 Sunny 74 23.3 16 -8.9 11 11 N 17 28 29.80 1009 10 16 0.00 0.00
4:53 pm 16:53 Sunny 73 22.8 16 -8.9 11 11 N 16 26 29.80 1009 10 16 0.00 0.00
5:53 pm 17:53 Sunny 73 22.8 15 -9.4 11 11 N 13 20 29.82 1010 10 16 0.00 0.00
6:53 pm 18:53 Clear 70 21.1 16 -8.9 12 12 NNE 7 11 29.85 1011 10 16 0.00 0.00
7:53 pm 19:53 Clear 66 18.9 25 -3.9 21 21 VRB 5 7 29.88 1012 10 16 0.00 0.00
8:53 pm 20:53 Clear 66 18.9 22 -5.6 19 19 W 6 9 29.89 1012 10 16 0.00 0.00
9:53 pm 21:53 Clear 61 16.1 30 -1.1 31 31 E 12 19 29.91 1013 10 16 0.00 0.00
10:53 pm 22:53 Clear 60 15.6 31 -0.6 33 33 ESE 8 13 29.92 1013 10 16 0.00 0.00
11:53 pm 23:53 Clear 60 15.6 31 -0.6 33 33 ENE 8 13 29.94 1014 10 16 0.00 0.00

Powered by AerisWeather